Regional Weather Roundup
Issued by NWS

Home | Current Version | Previous Version | Text Only | Print | Product List | Glossary Off
Versions: 1 2 3 4 5 6 7 8 9 10 11 12 13 14 15 16 17 18 19 20 21 22 23 24 25 26 27

000
ASUS45 KBOU 242007
RWRCO

WEATHER ROUNDUP FOR COLORADO
NATIONAL WEATHER SERVICE DENVER/BOULDER CO
200 PM MDT WED AUG 24 2016

NOTE: "FAIR" INDICATES FEW OR NO CLOUDS BELOW 12000 FEET WITH NO
SIGNIFICANT WEATHER AND/OR OBSTRUCTIONS TO VISIBILITY.

COZ001>005-013-030-031-242100-
...NORTHWEST COLORADO...

CITY           SKY/WX    TMP DP  RH WIND       PRES   REMARKS
CRAIG          FAIR      80  29  15 W14G21    30.15F
HAYDEN         FAIR      73  30  20 SW13      30.19F
MEEKER         LGT RAIN  75  34  22 SW14G22   30.18F
MOUNT WERNER   NOT AVBL
STEAMBOAT SPGS FAIR      72  33  24 W3        30.20F
WALDEN         FAIR      68  30  24 SW13      30.28S
$$

COZ006>008-011-242100-
...WEST CENTRAL VALLEYS...

CITY           SKY/WX    TMP DP  RH WIND       PRES   REMARKS
GRAND JUNCTION FAIR      81  47  30 W6        30.11F
MONTROSE       FAIR      74  45  35 NW8       30.19F
EAGLE          MOSUNNY   73  28  19 W10       30.21F
RIFLE          FAIR      79  44  28 N16G24    30.15F
DELTA          FAIR      77  46  33 S3        30.16F
NUCLA          FAIR      73  46  38 CALM      30.25F
$$

COZ017>023-064>068-242100-
...SOUTHWEST COLORADO...

CITY           SKY/WX    TMP DP  RH WIND       PRES   REMARKS
DURANGO        FAIR      68  48  48 SW8       30.26F
CORTEZ         FAIR      72  53  51 VRB5      30.23F
PAGOSA SPRINGS FAIR      64  44  48 SW8       30.32S
TELLURIDE      FAIR      60  38  44 NE5       30.41F
WOLF CREEK PAS PTSUNNY   45  37  76 CALM      30.57F
$$

COZ009-010-012-014-032>034-037-058>063-242100-
...CENTRAL COLORADO...

CITY           SKY/WX    TMP DP  RH WIND       PRES   REMARKS
ASPEN          FAIR      72  32  23 MISG      30.26F
BUENA VISTA    FAIR      62  44  51 E9        30.34F
COPPER MTN     PTSUNNY   46  37  71 CALM      30.55F
BERTHOUD PASS  HAZE      34  23  64 N5        30.58S VSB 1   WCI  30
COTTONWOOD PAS CLOUDY    55  45  67 E6        30.44F
GUNNISON       FAIR      64  45  48 CALM      30.31F
KREMMLING      FAIR      73  34  23 E9G18     30.26F
LEADVILLE      FAIR      52  38  58 S3        30.41F
MONARCH PASS   FOG       43  43 100 CALM      30.65S VSB 1/4
SALIDA         CLOUDY    63  45  52 SE5       30.39F
SUNLIGHT       FAIR      61  34  36 NE6       30.50F
WILKERSON PASS RAIN      39  37  93 CALM      30.56R VSB 1/4
$$

COZ069>075-242100-
...SAN LUIS VALLEY/SANGRE DE CRISTO MOUNTAINS...

CITY           SKY/WX    TMP DP  RH WIND       PRES   REMARKS
ALAMOSA        PTSUNNY   60  51  72 W13       30.30S
LA VETA PASS   CLOUDY    46  43  87 NE9       30.46R
SAGUACHE       PTSUNNY   59  46  63 CALM      30.33F
$$

COZ035-036-038>040-242100-
...NORTHERN COLORADO FRONT RANGE...

CITY           SKY/WX    TMP DP  RH WIND       PRES   REMARKS
DENVER INTL AP LGT RAIN  59  52  77 SW9       30.27R
DMNS CITY PARK   N/A     57  55  93 SW5       30.27S
AURORA         LGT RAIN  59  55  88 W8        30.29R
FRONT RANGE AP LGT RAIN  63  54  72 W7        30.28S
ERIE MUNI ARPT CLOUDY    65  48  54 S6        30.24F
BOULDER MUN AP FAIR      66  46  48 SE3       30.24F
CENTENNIAL     LGT RAIN  59  52  77 W8        30.29S
BROOMFIELD     CLOUDY    61  54  77 E5        30.28S
FORT COLLINS   NOT AVBL
LONGMONT       PTSUNNY   68  49  50 S7        30.24F
$$

COZ041-046-047-076>085-087-088-242100-
...PIKES PEAK/PALMER DIVIDE AND SOUTHERN FOOTHILLS...

CITY           SKY/WX    TMP DP  RH WIND       PRES   REMARKS
COLO. SPRINGS  CLOUDY    67  41  38 NE6       30.28S
A. F. ACADEMY  LGT RAIN  60  48  64 N10       30.30R
SCHRIEVER AFB  NOT AVBL
ELLICOTT       NOT AVBL
FALCON         CLOUDY    63  40  42 NE6       30.31F
FORT CARSON    NOT AVBL
LIMON          FAIR      75  34  22 NE13      30.22F
MONUMENT HILL  LGT RAIN  55  45  67 N6        30.35R
TRINIDAD       CLOUDY    73  45  36 NE8       30.20S
$$

COZ042>045-048>051-090-091-242100-
...NORTHEAST COLORADO...

CITY           SKY/WX    TMP DP  RH WIND       PRES   REMARKS
GREELEY ARPT   FAIR      68  48  49 SE6       30.22F
AKRON          PTSUNNY   72  33  24 E10       30.22F
BURLINGTON     PTSUNNY   66  44  45 N16       30.18F
WRAY           NOT AVBL
STERLING       CLOUDY    70  41  35 SE7       30.19F
HOLYOKE        FAIR      81  34  18 E9G18     30.17F
FORT MORGAN    CLOUDY    66  41  40 SE7       30.23F
$$

COZ086-089-092>099-242100-
...SOUTHEAST COLORADO...

CITY           SKY/WX    TMP DP  RH WIND       PRES   REMARKS
PUEBLO         CLOUDY    78  44  29 CALM      30.16S
LA JUNTA       CLOUDY    80  42  25 NE17      30.14S
LAMAR          FAIR      78  52  40 NE12      30.10S
SPRINGFIELD      N/A     76  55  48 N12G20    30.12F
$$




USA.gov is the U.S. government's official web portal to all federal, state and local government web resources and services.